Current weather by "City, St" or "zip code"  
 

Current Conditions: Willoughby, OH

Fair


77.0 F

Last Updated on May 21 2022, 4:35 am EDT
Humidity: 57%
Wind Speed: SW 13.8 G 18.4 mph
Barometer 29.85 in
Dewpoint: 60.3 F
Visibility: 10.00 mi
Precip: --
Heat Index: NA
Wind Chill: NA
Current conditions at:

Willoughby, OH (KLNN)

Lat: 41.68333 Lon: 81.38333

Local Radar Image active severe weather and emergency alerts image image weather storm and storm spotter reports image weather observation monitoring service image
Local
Radar
Active
Alerts
Storm Reports Obs
Monitoring

Sign-up For Email & Text Message Weather Alert Notification Services



Advertise Here

Observation History for Willoughby, OH


Time Wind
(mph)
Vis
(mi)
Weather Precip (in) Temperature (F) Relative
Humidity
Wind
Chill
(F)
Heat
Index
(F)
Pressure
Air Dwpt altimeter
(in)
sea level
(mb)
Rmks
4:35 am EDT SW 13.8 G 18.4 10.00 Fair -- 77.0 60.3 57% NA NA 29.85 M
4:15 am EDT SW 9.2 G 20.7 10.00 Fair -- 76.0 60.1 57% NA NA 29.84 M
3:55 am EDT SW 10.4 10.00 Fair -- 76.0 60.3 59% NA NA 29.83 M
3:15 am EDT SW 9.2 G 16.1 10.00 Fair -- 76.0 60.4 58% NA NA 29.81 M
2:55 am EDT SW 8.1 G 16.1 10.00 Fair -- 78.0 60.1 55% NA NA 29.81 M
2:35 am EDT SW 10.4 G 17.3 10.00 Fair -- 78.0 60.3 55% NA NA 29.80 M
2:15 am EDT SW 10.4 G 16.1 10.00 Fair -- 78.0 60.3 54% NA NA 29.80 M
1:55 am EDT SW 13.8 G 20.7 10.00 Fair -- 79.0 60.3 53% NA NA 29.79 M
1:15 am EDT SW 13.8 G 20.7 10.00 Fair -- 79.0 60.4 53% NA NA 29.79 M
12:55 am EDT SW 11.5 G 16.1 10.00 Fair -- 79.0 60.8 54% NA NA 29.79 M
12:35 am EDT SW 12.7 G 19.6 10.00 Fair -- 78.0 61.7 57% NA NA 29.79 M
12:15 am EDT SW 11.5 G 17.3 10.00 Fair -- 77.0 62.6 61% NA NA 29.79 M
11:55 pm EDT SW 6.9 10.00 Fair -- 78.0 63.1 61% NA NA 29.79 M
11:35 pm EDT SW 9.2 10.00 Fair -- 78.0 63.5 61% NA NA 29.78 M
10:55 pm EDT SW 8.1 10.00 Fair -- 79.0 63.3 59% NA NA 29.76 M
10:15 pm EDT SW 9.2 10.00 Fair -- 79.0 63.0 58% NA NA 29.74 M
9:55 pm EDT SW 9.2 10.00 Fair -- 79.0 62.6 57% NA NA 29.73 M
9:35 pm EDT SW 10.4 G 17.3 10.00 Fair -- 80.0 62.1 55% NA 81 29.71 M
9:15 pm EDT SW 9.2 G 18.4 10.00 Fair -- 80.0 61.9 55% NA 81 29.69 M
8:55 pm EDT SW 13.8 G 20.7 10.00 Fair -- 80.0 61.9 55% NA 81 29.68 M
8:35 pm EDT SW 11.5 G 19.6 10.00 Fair -- 80.0 61.3 53% NA 81 29.67 M
8:15 pm EDT SW 11.5 G 20.7 10.00 Fair -- 80.0 60.8 52% NA 81 29.65 M
7:55 pm EDT SW 11.5 G 21.9 10.00 Fair -- 80.0 59.7 50% NA 81 29.64 M
5:55 pm EDT SW 15.0 G 23.0 10.00 Fair -- 84.0 61.0 45% NA 84 29.62 M

Regional Weather Observation


Cleveland / Cuyahoga, OH (KCGF)

Fair
76.0 F

Cleveland, Burke Lakefront Airport, OH (KBKL)

Fair
79.0 F

Cleveland Hopkins International Airport, OH (KCLE)

Fair
76.0 F

Portage County Airport, OH (KPOV)

Fair
72.0 F

Akron, Akron Fulton International Airport, OH (KAKR)

Fair
75.0 F

Lorain / Elyria, Lorain County Regional Airport, OH (KLPR)

Fair
77.0 F

Advertise Here


Advertise Here